Location: All Nations United Methodist Church
(33.0215°N, 96.7483°W)
Time: 15:14:00
(UTC+00:00)

Cosmos 2228 - Pass Details

Date: 24 January 2021
Orbit: 590 x 617 km, 82.5° (Epoch: 07 March)

Event Time Altitude Azimuth Distance (km) Brightness Sun altitude
Rises 12:34:27 0° 188° (S) 2,821 6.5 -11.2°
Reaches altitude 10° 12:36:39 10° 190° (S) 1,920 5.7 -10.8°
Maximum altitude 12:40:53 76° 275° (W) 612 2.9 -9.9°
Drops below altitude 10° 12:45:08 10° 3° (N) 1,923 5.5 -9.1°
Sets 12:47:20 0° 5° (N) 2,827 6.3 -8.6°
